User: anonymous   Login
Location: Voyageurs National Park
(48.5020°N, 92.9292°W)
Time: 20:23:36
(UTC-05:00)
Language:

Terra - Orbit

View from above orbital plane
View from above orbital plane
View from above satellite
View from above satellite

Ground track
Ground track

The orbit data is extracted from the following two-line orbital elements,

1 25994U 99068A   15215.39448791  .00000265  00000-0  68956-4 0  9991
2 25994 098.2106 289.2937 0001283 095.3117 264.8229 14.57117236831098
Epoch (UTC): 03 August 2015 09:28:03
Eccentricity: 0.0001283
inclination: 98.2106°
perigee height: 701 km
apogee height: 703 km
right ascension of ascending node: 289.2937°
argument of perigee: 95.3117°
revolutions per day: 14.57117236
mean anomaly at epoch: 264.8229°
orbit number at epoch: 83109

The dashed part of the orbit path shows where the satellite is in the earth's shadow,  

DLR